Probability
0 0 0 0 0 0 0 0 0 0 0 0 0 0 0 0 0 0 0 0 0 0 0 0 0 0 0 0 0 0 0 0 0 0 0 0 0 0 0 0 0 0 0 0
0 0 0 0 0 0 0 0 0 0 0 0 0 0 0 0 0 0 0 0 0 0 0 0 0 0 0 0 0 0 0 0 0 0 0 0 0 0 0 0 0 0 0 0
0 0 0 0 0 0 0 0 0 0 0 0 0 0 0 0 0 0 0 0 0 0 0 0 0 0 0 0 0 0 0 0 0 0 0 0 0 0 0 0 0 0 0 0
0 0 0 0 0 0 0 0 0 0 0 0 0 0 0 0 0 0 0 0 0 0 0 0 0 0 0 0 0 0 0 0 0 0 0 0 0 0 0 0 0 0 0 0
0 0 0 0 0 0 0 0 0 0 0 0 0 0 0 0 0 0 0 0 0 0 0 0 0 0 0 0 0 0 0 0 0 0 0 0 0 0 0 0 0 0 0 0
0 0 0 0 0 0 0 0 0 0 0 0 0 0 0 0 0 0 0 0 0 0 0 0 0 0 0 0 0 0 0 0 0 0 0 0 0 0 0 0 0 0 0 0
0 0 0 0 0 0 0 0 0 0 0 0 0 0 0 0 0 0 0 0 0 0 0 0 0 0 0 0 0 0 0 0 0 0 0 0 0 0 0 0 0 0 0 0
0 0 0 0 0 0 0 0 0 0 0 0 0 0 0 0 0 0 0 0 0 0 0 0 0 0 0 0 0 0 0 0 0 0 0 0 0 0 0 0 0 0 0 0
0 0 0 0 0 0 0 0 0 0 0 0 0 0 0 0 0 0 0 0 0 0 0 0 0 0 0 0 0 0 0 0 0 0 0 0 0 0 0 0 0 0 0 0
0 0 0 0 0 0 0 0 0 0 0 0 0 0 0 0 0 0 0 0 0 0 0 0 0 0 0 0 0 0 0 0 0 0 0 0 0 0 0 0 0 0 0 0
0 0 0 0 0 0 0 0 0 0 0 0 0 0 0 0 0 0 0 0 0 0 0 0 0 0 0 0 0 0 0 0 0 0 0 0 0 0 0 0 0 0 0 0
0 0 0 0 0 0 0 0 0 0 0 0 0 0 0 0 0 0 0 0 0 0 0 0 0 0 0 0 0 0 0 0 0 0 0 0 0 0 0 0 0 0 0 0
0 0 0 0 0 0 0 0 0 0 0 0 0 0 0 0 0 0 0 0 0 0 0 0 0 0 0 0 0 0 0 0 0 0 0 0 0 0 0 0 0 0 0 0
0 0 0 0 0 0 0 0 0 0 0 0 0 0 0 0 0 0 0 0 0 0 0 0 0 0 0 0 0 0 0 0 0 0 0 0 0 0 0 0 0 0 0 0
0 0 0 0 0 0 0 0 0 0 0 0 0 0 0 0 0 0 0 0 0 0 0 0 0 0 0 0 0 0 0 0 0 0 0 0 0 0 0 0 0 0 0 0
0 0 0 0 0 0 0 0 0 0 0 0 0 0 0 0 0 0 0 0 0 0 0 0 0 0 0 0 0 0 0 0 0 0 0 0 0 0 0 0 0 0 0 0
0 0 0 0 0 0 0 0 0 0 0 0 0 0 0 0 0 0 0 0 0 0 0 0 0 0 0 0 0 0 0 0 0 0 0 0 0 0 0 0 0 0 0 0
0 0 0 0 0 0 0 0 0 0 0 0 0 0 0 0 0 0 0 0 0 0 0 0 0 0 0 0 0 0 0 0 0 0 0 0 0 0 0 0 0 0 0 0
0 0 0 0 0 0 0 0 0 0 0 0 0 0 0 0 0 0 0 0 0 0 0 0 0 0 0 0 0 0 0 0 0 0 0 0 0 0 0 0 0 0 0 0
0 0 0 0 0 0 0 0 0 0 0 0 0 0 0 0 0 0 0 0 0 0 0 0 0 0 0 0 0 0 0 0 0 0 0 0 0 0 0 0 0 0 0 0
0 0 0 0 0 0 0 0 0 0 0 0 0 0 0 0 0 0 0 0 0 0 0 0 0 0 0 0 0 0 0 0 0 0 0 0 0 0 0 0 0 0 0 0
0 0 0 0 0 0 0 0 0 0 0 0 0 0 0 0 0 0 0 0 0 0 0 0 0 0 0 0 0 0 0 0 0 0 0 0 0 0 0 0 0 0 0 0
0 0 0 0 0 0 0 0 0 0 0 0 0 0 0 0 0 0 0 0 0 0 0 0 0 0 0 0 0 0 0 0 0 0 0 0 0 0 0 0 0 0 0 0
0 0 0 0 0 0 0 0 0 0 0 0 0 0 0 0 0 0 0 0 0 0 0 0 0 0 0 0 0 0 0 0 0 0 0 0 0 0 0 0 0 0 0 0
0 0 0 0 0 0 0 0 0 0 0 0 0 0 0 0 0 0 0 0 0 0 0 0 0 0 0 0 0 0 0 0 0 0 0 0 0 0 0 0 0 0 0 0
0 0 0 0 0 0 0 0 0 0 0 0 0 0 0 0 0 0 0 0 0 0 0 0 0 0 0 0 0 0 0 0 0 0 0 0 0 0 0 0 0 0 0 0
0 0 0 0 0 0 0 0 0 0 0 0 0 0 0 0 0 0 0 0 0 0 0 0 0 0 0 0 0 0 0 0 0 0 0 0 0 0 0 0 0 0 0 0
Height
5639 5643 5647 5651 5656 5659 5661 5666 5670 5676 5680 5685 5687 5688 5689 5691 5693 5695 5697 5698 5700 5701 5701 5702 5703 5703 5704 5704 5704 5703 5702 5701 5700 5698 5696 5693 5690 5688 5685 5681 5678 5674 5670 5666
5628 5632 5635 5638 5644 5648 5652 5656 5660 5664 5669 5675 5675 5677 5678 5680 5682 5685 5687 5688 5689 5691 5692 5692 5693 5694 5694 5694 5694 5693 5692 5691 5689 5688 5685 5683 5680 5677 5674 5671 5667 5663 5659 5655
5618 5622 5622 5627 5636 5639 5643 5647 5650 5652 5661 5662 5663 5666 5668 5670 5673 5674 5676 5678 5679 5681 5682 5683 5683 5684 5684 5684 5684 5683 5682 5681 5679 5677 5675 5673 5670 5667 5664 5660 5657 5653 5648 5644
5607 5610 5611 5624 5627 5629 5632 5636 5639 5643 5648 5650 5652 5654 5656 5659 5661 5664 5666 5668 5669 5670 5671 5672 5673 5673 5673 5673 5673 5672 5671 5670 5668 5666 5664 5662 5659 5656 5653 5649 5645 5641 5637 5632
5596 5597 5601 5611 5617 5619 5621 5625 5630 5632 5636 5638 5640 5642 5646 5649 5650 5653 5655 5657 5659 5660 5661 5662 5662 5662 5663 5663 5662 5662 5661 5659 5657 5656 5654 5651 5648 5645 5642 5638 5634 5630 5625 5620
5585 5587 5592 5604 5607 5607 5609 5613 5620 5620 5624 5626 5627 5631 5637 5639 5640 5642 5644 5646 5647 5649 5650 5651 5651 5651 5652 5652 5651 5651 5649 5648 5646 5644 5642 5640 5637 5633 5630 5626 5622 5618 5613 5608
5575 5577 5583 5593 5595 5596 5599 5606 5608 5609 5612 5615 5617 5622 5626 5626 5629 5631 5633 5635 5636 5637 5639 5640 5640 5641 5641 5641 5640 5639 5638 5637 5635 5633 5631 5628 5625 5622 5618 5614 5610 5606 5601 5596
5564 5568 5577 5583 5583 5586 5590 5593 5595 5597 5600 5604 5607 5610 5612 5614 5617 5620 5622 5624 5625 5626 5628 5629 5629 5630 5630 5629 5629 5628 5627 5625 5623 5621 5619 5616 5613 5610 5606 5602 5598 5593 5588 5583
5555 5562 5568 5569 5572 5575 5577 5581 5583 5586 5590 5593 5596 5598 5601 5603 5606 5609 5611 5613 5614 5615 5617 5618 5618 5618 5618 5618 5617 5616 5615 5613 5611 5609 5607 5604 5601 5598 5594 5590 5585 5581 5576 5571
5543 5550 5556 5558 5560 5563 5566 5569 5572 5575 5579 5582 5584 5587 5590 5592 5595 5597 5599 5601 5603 5604 5605 5606 5606 5606 5606 5606 5605 5604 5603 5602 5600 5597 5595 5592 5589 5585 5581 5577 5572 5567 5562 5557
5532 5540 5543 5546 5549 5551 5554 5557 5560 5564 5567 5570 5573 5576 5579 5581 5584 5586 5588 5590 5591 5592 5593 5594 5594 5594 5594 5594 5593 5592 5591 5590 5588 5585 5582 5580 5576 5572 5568 5564 5559 5554 5549 5543
5524 5529 5530 5534 5537 5539 5542 5546 5549 5553 5556 5559 5562 5565 5567 5570 5573 5575 5577 5578 5579 5581 5581 5582 5582 5582 5582 5582 5581 5580 5579 5577 5575 5573 5570 5567 5563 5560 5555 5550 5545 5540 5535 5529
5513 5515 5518 5522 5526 5528 5531 5535 5538 5542 5545 5548 5551 5554 5556 5559 5561 5563 5565 5566 5568 5568 5569 5570 5570 5570 5570 5570 5569 5568 5566 5565 5562 5560 5557 5554 5550 5546 5542 5537 5532 5526 5521 5515
5500 5503 5506 5511 5514 5517 5520 5523 5527 5530 5534 5537 5540 5542 5545 5547 5549 5552 5553 5555 5556 5556 5557 5557 5558 5558 5557 5557 5556 5555 5553 5551 5549 5546 5543 5540 5537 5533 5528 5524 5519 5513 5507 5500
5490 5492 5495 5499 5502 5505 5508 5511 5515 5519 5523 5526 5528 5531 5533 5535 5538 5540 5542 5543 5544 5544 5545 5545 5545 5545 5545 5544 5543 5542 5540 5538 5536 5533 5530 5526 5523 5519 5514 5509 5504 5499 5493 5486
5478 5480 5483 5487 5491 5494 5496 5500 5503 5507 5510 5514 5517 5519 5521 5524 5526 5528 5529 5531 5531 5532 5532 5533 5533 5532 5532 5531 5530 5529 5527 5524 5522 5519 5516 5513 5509 5505 5500 5495 5490 5484 5479 5473
5465 5469 5472 5475 5479 5482 5485 5488 5491 5494 5498 5501 5504 5507 5509 5511 5513 5515 5517 5518 5519 5519 5519 5520 5520 5519 5519 5518 5517 5515 5513 5511 5509 5506 5503 5499 5495 5491 5486 5481 5476 5470 5464 5458
5453 5456 5460 5463 5466 5469 5473 5476 5479 5482 5485 5488 5491 5494 5496 5499 5501 5503 5504 5505 5506 5507 5507 5507 5507 5506 5506 5505 5503 5502 5500 5498 5495 5492 5489 5485 5481 5476 5471 5466 5461 5456 5450 5443
5441 5445 5449 5452 5455 5458 5461 5464 5467 5470 5473 5476 5479 5482 5484 5486 5488 5490 5491 5492 5493 5494 5494 5494 5494 5493 5492 5491 5490 5488 5486 5484 5481 5478 5474 5470 5466 5462 5457 5452 5447 5441 5435 5429
5431 5434 5437 5440 5443 5446 5449 5452 5455 5457 5461 5463 5466 5469 5472 5474 5476 5478 5479 5480 5481 5481 5481 5481 5481 5480 5479 5478 5476 5474 5472 5470 5467 5463 5460 5456 5452 5447 5442 5438 5432 5427 5420 5414
5420 5423 5426 5429 5432 5435 5437 5440 5443 5445 5448 5451 5454 5457 5459 5461 5463 5465 5466 5467 5468 5468 5468 5468 5467 5466 5465 5464 5462 5460 5458 5455 5452 5449 5445 5441 5437 5433 5428 5423 5417 5412 5405 5399
5410 5412 5414 5417 5420 5423 5425 5428 5431 5434 5436 5439 5441 5444 5447 5449 5451 5452 5453 5454 5455 5455 5455 5454 5453 5452 5451 5450 5448 5446 5443 5441 5438 5434 5431 5427 5423 5418 5413 5408 5402 5396 5390 5384
5399 5401 5404 5406 5408 5411 5414 5416 5419 5422 5424 5427 5429 5431 5434 5436 5438 5439 5441 5441 5441 5441 5441 5441 5440 5439 5438 5436 5434 5432 5429 5426 5423 5420 5416 5412 5408 5403 5399 5393 5387 5382 5376 5370
5389 5391 5393 5395 5397 5400 5403 5406 5408 5410 5412 5415 5416 5419 5421 5423 5425 5426 5427 5428 5428 5428 5428 5427 5426 5425 5424 5422 5420 5418 5415 5412 5409 5406 5402 5398 5393 5389 5384 5378 5373 5367 5362 5356
5379 5381 5383 5386 5388 5390 5393 5395 5397 5399 5401 5403 5405 5407 5409 5411 5412 5413 5414 5415 5415 5415 5415 5414 5413 5412 5410 5408 5406 5404 5402 5399 5396 5392 5388 5384 5379 5375 5370 5364 5359 5354 5349 5343
5370 5371 5373 5376 5378 5380 5382 5385 5387 5388 5390 5392 5393 5395 5397 5398 5400 5401 5402 5402 5402 5402 5401 5401 5400 5398 5397 5395 5393 5391 5388 5385 5382 5378 5374 5370 5366 5361 5356 5351 5346 5341 5336 5331
5360 5362 5364 5366 5368 5370 5372 5374 5376 5378 5379 5381 5382 5384 5385 5387 5388 5388 5389 5389 5389 5389 5389 5388 5387 5385 5384 5382 5380 5377 5375 5372 5368 5365 5361 5357 5352 5348 5343 5339 5334 5329 5324 5319
Wind_Speed
44 43 44 45 46 47 49 48 48 44 41 37 37 37 37 38 38 37 36 35 35 36 36 36 36 36 36 36 36 36 36 37 37 37 37 38 39 39 40 41 41 42 43 44
44 45 45 46 47 48 47 46 46 46 42 37 38 39 39 38 38 38 37 36 35 36 36 36 36 36 36 36 36 37 37 38 38 38 38 39 40 40 41 41 42 43 44 45
45 45 47 47 44 45 46 45 46 46 41 40 41 40 39 39 39 38 37 36 36 35 36 36 37 37 37 37 37 38 38 39 39 39 40 40 41 41 41 42 43 44 45 45
45 46 48 45 42 42 43 43 44 45 43 42 42 41 40 39 39 39 38 38 37 36 36 37 38 39 39 39 38 39 39 39 40 41 41 41 41 42 43 43 44 45 46 46
44 47 48 46 42 41 42 43 42 43 42 42 42 43 41 39 39 38 38 38 38 38 38 38 39 39 40 39 39 39 40 40 41 42 42 42 43 43 44 45 45 46 46 47
44 45 45 41 40 40 42 42 39 40 41 41 42 43 40 40 39 39 38 39 40 40 39 39 39 39 39 39 39 39 40 41 41 42 43 43 43 44 45 45 46 47 47 48
46 46 44 39 39 39 41 39 37 38 39 39 40 40 39 41 41 40 40 40 40 40 40 40 39 39 39 39 39 40 41 41 42 43 43 43 44 45 45 46 47 47 48 49
46 47 43 37 39 39 38 37 38 39 39 39 39 38 39 40 41 41 41 41 41 40 40 40 39 39 39 39 40 41 41 42 43 43 43 43 44 45 46 46 47 48 49 50
45 45 41 39 38 37 38 39 39 38 38 39 38 38 38 39 40 40 41 41 40 40 39 39 39 39 39 40 40 41 41 42 43 43 44 44 45 46 46 47 48 49 50 51
44 43 42 39 38 38 39 39 39 38 37 38 38 37 37 38 38 39 39 39 39 39 39 38 39 39 40 40 41 41 42 42 43 44 44 45 45 46 47 48 49 50 51 52
43 41 41 41 40 39 40 39 39 39 38 37 37 37 38 38 38 38 38 38 39 39 39 39 39 40 40 40 41 41 42 43 44 44 44 45 45 46 48 49 50 51 51 52
40 39 41 40 41 42 41 41 40 39 38 38 38 38 38 38 38 37 38 38 39 40 41 40 40 40 40 41 41 42 43 43 44 44 45 45 46 47 48 49 50 51 52 53
41 40 41 41 41 41 42 41 41 41 40 39 39 39 39 38 38 38 38 38 39 40 40 40 40 40 41 42 42 42 43 44 44 45 46 46 47 48 48 49 51 52 53 54
40 39 39 40 42 42 43 43 42 42 41 40 39 38 38 38 39 39 39 39 39 40 41 41 41 41 42 42 42 43 44 44 45 46 46 47 48 49 49 50 51 52 53 54
40 40 40 40 40 41 42 43 43 42 42 41 40 39 38 38 38 39 40 40 40 41 41 41 42 42 42 42 42 43 44 44 45 46 46 47 48 49 50 51 52 52 53 53
41 41 40 40 40 40 41 41 42 42 42 42 42 41 40 39 39 39 40 40 41 41 41 41 42 42 42 42 43 44 44 44 45 46 46 47 48 50 51 51 52 52 53 54
42 41 40 40 40 40 41 41 41 41 41 42 41 41 40 40 39 39 39 39 40 40 40 41 41 41 42 42 43 43 43 44 45 46 47 48 49 50 51 51 52 53 53 54
41 41 41 40 39 40 40 41 41 42 42 42 41 41 40 40 40 39 39 39 39 40 40 40 41 42 42 42 42 43 44 45 46 47 48 49 50 51 51 51 52 53 54 54
38 39 39 39 39 38 38 39 40 40 41 42 42 41 41 40 40 39 39 39 39 39 40 41 41 42 42 42 43 44 45 46 47 47 48 50 50 51 51 52 52 53 54 55
37 37 38 39 39 39 39 39 39 39 40 41 41 41 40 40 40 40 39 39 39 40 40 41 42 42 43 43 44 45 46 46 47 48 49 49 50 50 51 52 53 54 55 55
35 35 36 37 38 39 39 39 37 37 38 39 40 40 40 39 39 39 39 40 40 41 41 42 42 43 43 44 45 45 46 46 47 47 48 49 49 50 51 53 54 54 54 55
34 34 35 36 37 37 38 38 37 36 38 38 39 39 40 40 39 39 39 40 41 41 41 41 42 42 43 44 44 45 45 46 47 47 48 48 49 50 51 52 53 53 53 53
33 33 33 34 35 35 36 36 36 36 36 37 37 38 39 38 38 39 39 40 41 41 41 41 42 42 43 43 43 44 45 46 47 47 47 48 49 50 51 51 52 52 51 51
32 32 32 33 33 34 33 33 33 34 34 35 36 37 38 37 37 38 39 39 40 40 40 40 41 41 41 42 43 44 45 45 46 46 47 47 48 49 50 50 49 49 48 48
32 32 32 32 32 33 32 32 32 32 33 33 34 35 37 37 38 38 38 39 39 40 40 40 40 41 41 42 42 42 43 43 44 45 46 46 47 47 47 47 46 45 46 45
30 30 31 31 31 32 32 32 32 31 31 32 33 34 35 36 37 37 37 38 38 38 39 39 40 40 40 40 40 41 42 43 43 44 45 45 44 44 44 43 43 43 43 43
28 28 29 29 30 30 30 31 31 31 32 33 33 34 34 34 34 35 35 36 36 37 38 39 39 39 39 39 40 41 42 42 43 43 42 42 42 42 42 42 42 42 42 41
Wind_Direction
239 240 241 241 240 241 244 246 249 249 250 249 250 252 252 251 250 252 254 256 258 259 261 263 264 265 266 268 270 272 275 277 279 280 282 284 286 288 290 292 294 295 296 297
239 239 241 242 240 241 244 246 249 249 248 248 247 248 250 251 251 252 253 254 257 259 261 263 264 265 266 268 270 273 275 277 279 280 282 284 286 288 291 293 294 296 297 298
243 243 243 242 241 245 247 248 250 250 248 248 248 249 249 250 250 251 251 253 257 259 260 262 264 265 267 269 271 273 275 277 279 280 282 284 286 288 290 292 294 296 297 298
243 243 244 244 243 245 247 248 250 250 249 249 250 249 248 248 249 250 252 254 257 259 261 262 264 266 268 269 272 274 275 277 279 281 283 285 287 289 291 293 294 296 297 298
245 246 246 244 245 248 249 248 249 251 250 249 250 249 249 249 250 252 254 255 257 259 261 263 265 267 269 271 273 274 276 278 279 281 284 286 287 289 292 293 294 296 297 298
245 247 247 246 247 248 249 248 247 250 250 249 251 251 249 250 252 253 255 257 258 259 261 263 266 268 270 272 273 274 276 278 280 282 284 286 288 290 292 293 295 296 297 298
246 249 248 246 249 248 248 247 246 247 248 249 250 251 251 250 252 253 255 256 258 260 261 264 266 268 270 271 272 274 276 278 280 282 284 287 288 290 292 293 295 296 298 299
247 248 248 248 250 250 249 245 245 246 247 249 251 251 251 252 253 254 255 256 258 260 262 264 266 268 270 271 272 274 277 279 281 282 285 287 289 290 292 293 295 297 298 299
246 247 248 248 248 247 246 244 244 246 248 249 251 252 253 253 255 256 257 258 259 260 261 264 266 268 270 271 272 275 277 279 281 283 285 287 289 291 292 294 296 297 298 300
245 247 247 247 246 245 244 242 243 245 246 247 250 252 253 254 255 258 260 260 260 260 261 263 266 267 269 271 273 275 277 279 282 283 285 287 289 291 293 295 296 297 299 300
246 246 247 245 243 243 242 241 242 244 245 247 250 251 253 254 256 258 260 260 260 261 262 264 266 268 270 271 273 275 277 280 282 283 285 287 289 292 294 295 297 298 299 301
246 246 248 245 244 244 244 243 243 244 246 247 250 252 253 254 256 258 260 260 262 263 264 266 267 268 270 271 273 275 278 280 282 284 286 288 290 292 294 296 297 299 300 301
247 247 247 246 246 246 247 246 246 246 247 249 251 253 254 255 255 257 259 261 262 264 266 267 268 269 270 273 274 276 279 280 282 284 286 288 291 293 294 296 297 299 300 301
245 246 248 247 246 247 247 247 247 248 248 249 251 253 253 253 255 257 259 261 263 264 266 267 268 269 271 272 275 277 279 281 283 285 287 288 290 292 294 296 298 299 301 302
246 247 248 247 247 247 248 247 248 248 249 251 252 253 253 254 256 258 260 263 264 265 266 267 268 269 271 273 275 278 279 281 283 285 287 288 291 293 295 297 298 299 300 301
246 247 247 248 249 250 249 249 249 249 249 250 251 253 255 256 257 258 261 263 265 266 266 266 268 269 271 274 276 278 280 282 284 285 287 289 291 293 295 297 298 299 301 302
246 247 248 249 249 250 250 249 248 249 250 249 250 253 256 257 259 260 260 262 264 265 266 267 268 270 272 275 277 279 280 282 284 286 288 290 292 294 296 297 298 299 301 302
245 245 246 248 249 249 249 248 248 249 251 251 251 253 256 258 259 260 261 263 264 266 267 268 270 272 274 276 278 280 282 284 285 287 288 290 292 294 295 296 298 300 301 303
244 244 245 247 247 248 249 250 250 250 251 251 251 252 255 257 258 259 261 263 265 266 267 268 271 273 275 277 279 280 282 284 285 287 289 291 293 294 296 297 299 300 302 304
244 244 244 245 245 247 248 250 251 250 251 251 251 251 253 255 256 257 261 263 265 266 267 269 272 274 275 277 278 281 283 284 286 287 289 291 293 294 296 298 300 301 303 304
247 246 245 246 246 248 248 249 251 251 251 250 249 249 251 254 256 258 260 263 265 267 268 270 272 274 276 277 279 281 282 284 286 288 290 292 293 295 297 299 300 301 303 304
248 247 248 248 248 247 247 247 249 250 249 249 249 249 251 253 256 258 261 264 266 268 269 271 273 274 276 278 280 282 283 285 287 289 291 293 294 295 297 299 300 301 302 304
251 251 250 248 248 246 246 248 250 250 249 250 250 250 250 253 256 259 262 265 267 268 269 271 273 275 277 279 281 283 285 287 289 290 292 293 295 297 298 299 301 302 303 304
252 251 249 248 248 246 246 249 250 249 249 251 251 250 251 255 258 260 262 264 266 268 270 273 274 276 278 279 281 284 286 288 290 292 293 295 296 297 299 300 301 302 303 305
252 251 250 249 247 247 248 249 250 250 249 250 252 253 255 256 258 259 261 263 266 269 272 274 275 276 278 280 283 285 287 289 291 293 294 296 297 298 300 301 302 303 304 305
253 251 250 250 247 247 248 248 250 252 253 254 255 256 256 257 259 260 263 265 267 270 272 274 276 278 280 282 284 286 288 290 292 294 295 296 298 299 301 302 303 304 305 306
253 252 252 252 250 249 250 252 254 256 257 258 258 258 258 259 260 262 265 267 270 271 274 276 278 280 281 282 285 287 289 291 293 294 295 296 298 300 301 303 304 304 305 306